[[{"header":{"parameterUnit":"m.s-1","parameterCategory":1,"la1":30.2991,"la2":30.254,"lo1":-89.0895,"lo2":-89.0444,"dy":0.0017,"dx":0.0017,"nx":28,"ny":28,"refTime":"2024-07-03T09:00:00:Z","depth":0,"parameterNumber":2,"parameterNumberName":"U-component_of_WINDS"},"data":[0,0,0,0,0,0,0,0,0,0,0,0,0,0,0,0,0,0,0,0,0,0,0,0,0,0,0,0,0,0,0,0,0,0,0,0,0,0,0,0,0,0,0,0,0,0,0,0,0,0,0,0,0,0,0,0,0,0,2.4766,2.4767,0,2.4834,2.4834,2.4835,2.4805,2.4804,2.4802,2.4801,2.4869,2.4872,2.4876,0,0,0,0,0,0,0,0,0,0,0,0,0,2.4608,2.4611,2.4766,2.4767,2.4767,2.4834,2.4834,2.4835,2.4806,2.4804,2.4802,2.48,2.4868,2.4872,2.4876,0,0,0,0,0,0,0,0,0,0,0,0,0,2.4676,2.4612,2.4766,2.4761,2.4761,2.4833,2.4835,2.4836,2.4806,2.4804,2.4801,2.4799,2.4867,2.4871,2.4876,2.4957,0,0,2.4892,2.4894,0,0,0,0,0,0,0,0,2.4672,2.4682,2.4761,2.4761,2.4762,2.4809,2.4804,2.4876,2.4807,2.4789,2.4801,2.4798,2.4851,2.4857,2.4875,2.4961,2.4964,2.4892,2.4895,2.4898,2.4899,0,0,0,0,0,0,0,2.4668,2.4679,2.4793,2.4762,2.4762,2.4754,2.4761,2.4817,2.4833,2.479,2.4788,2.4797,2.4851,2.487,2.4877,2.4965,2.4892,2.4897,2.49,2.4902,2.5116,2.5119,0,0,0,0,0,0,2.4663,2.4675,2.479,2.4795,2.471,2.4759,2.4767,2.4796,2.4832,2.4835,2.4799,2.4795,2.4863,2.4871,2.4879,2.4973,2.4898,2.4902,2.4905,2.5114,2.5117,2.512,0,0,0,0,0,0,2.466,2.4674,2.4788,2.4734,2.4748,2.4764,2.4797,2.4799,2.4818,2.4839,2.4841,2.4816,2.4861,2.4872,2.4937,2.4975,2.4905,2.4909,2.511,2.5115,2.5118,2.5164,0,0,0,0,0,0,2.4655,2.4673,2.4704,2.4735,2.4751,2.4846,2.48,2.4802,2.4827,2.4823,2.4856,2.4859,2.486,2.493,2.4942,2.4981,2.4913,2.5107,2.5112,2.5117,2.5159,2.5169,2.5178,0,0,0,0,0,2.465,2.4715,2.4706,2.472,2.4791,2.4848,2.4857,2.4858,2.4831,2.4862,2.4874,2.4858,2.497,2.4937,2.4951,2.4991,2.5105,2.5111,2.5117,2.5155,2.5167,2.5177,0,0,0,0,0,0,2.4688,2.4719,2.471,2.4787,2.4815,2.4843,2.4882,2.4871,2.4907,2.4902,2.4901,2.4908,2.4976,2.4991,2.4954,2.507,2.5033,2.5042,2.5057,2.5069,2.5078,2.5072,2.4917,0,0,0,0,0,2.4706,2.475,2.4775,2.484,2.4855,2.4867,2.4891,2.4889,2.4918,2.493,2.4948,2.4976,2.5017,2.5044,2.5084,2.5162,2.5167,2.5197,2.5206,2.5213,2.522,2.5259,2.5272,2.5139,2.5139,2.5139,0,0,2.4742,2.4765,2.4793,2.4849,2.487,2.4915,2.4877,2.4926,2.4959,2.4938,2.4999,2.5014,2.5045,2.5117,2.5149,2.5131,2.5258,2.5221,2.5227,2.523,2.5267,2.5279,2.529,2.5143,2.5143,2.5142,0,0,2.483,2.4853,2.4909,2.4931,2.4964,2.4971,2.4985,2.5014,2.5022,2.5085,2.5069,2.5108,2.518,2.5202,2.5222,2.5318,2.5302,2.5331,2.5378,2.5416,2.5426,2.5435,2.5466,2.5478,2.5338,2.5338,2.5338,0,2.4871,2.4938,2.4939,2.4989,2.5013,2.4996,2.5051,2.5072,2.5117,2.5133,2.5113,2.52,2.5221,2.5295,2.5318,2.5337,2.535,2.5326,2.5425,2.5434,2.5443,2.5472,2.5484,2.5341,2.5341,2.534,2.534,0,2.4985,2.5032,2.5073,2.5115,2.5144,2.5197,2.5204,2.5233,2.5228,2.5237,2.5299,2.5323,2.5365,2.5383,2.538,2.5457,2.5444,2.5425,2.5387,2.5458,2.5485,2.5497,2.5345,2.5344,2.5343,2.5343,0,0,2.5099,2.514,2.5155,2.5172,2.5207,2.5243,2.5294,2.5335,2.5358,2.539,2.543,2.5491,2.5472,2.5496,2.5495,2.5529,2.5598,2.5504,2.5505,2.5518,2.5681,2.5693,2.5707,2.559,2.5592,2.5594,2.5677,0,2.5187,2.5276,2.5277,2.5359,2.54,2.5384,2.5428,2.5453,2.5463,2.5499,2.5509,2.5551,2.5525,2.5538,2.5571,2.5583,2.563,2.5577,2.5625,2.5627,2.5615,2.5722,2.5735,2.5813,2.5688,2.569,2.5692,0,2.5302,2.5336,2.5421,2.5447,2.5465,2.5504,2.5541,2.5576,2.5604,2.5608,2.5634,2.5627,2.5677,2.5639,2.5707,2.5671,2.5691,2.5699,2.5702,2.5704,2.5662,2.5723,2.5838,2.5849,2.5709,2.5708,2.5707,0,2.5372,2.5439,2.5498,2.5514,2.5547,2.5575,2.559,2.5615,2.5639,2.5671,2.5686,2.5724,2.5744,2.5773,2.5776,2.5749,2.5843,2.5806,2.5846,2.5845,2.5864,2.5862,2.598,2.5882,2.5882,2.5882,2.5882,0,2.5468,2.552,2.5529,2.5565,2.5622,2.5623,2.5679,2.5692,2.5714,2.5751,2.5741,2.5775,2.5778,2.5814,2.5817,2.587,2.588,2.5884,2.5883,2.5883,2.5882,2.5894,2.5887,2.5885,2.5884,2.5884,2.5883,0,2.5555,2.5564,2.5626,2.5652,2.566,2.57,2.5722,2.5755,2.5764,2.5811,2.5822,2.5834,2.5875,2.5881,2.593,2.5931,2.5995,2.599,2.5985,2.5983,2.6021,2.6016,2.6149,2.6165,2.6059,2.606,2.6061,0,2.5615,2.5654,2.5684,2.5708,2.5724,2.5764,2.5787,2.579,2.5815,2.5848,2.5877,2.5917,2.5949,2.6015,2.6027,2.6064,2.6058,2.6102,2.6063,2.6061,2.6055,2.6051,2.6054,2.6108,2.611,2.6111,2.6111,0,2.5718,2.572,2.5756,2.5792,2.5821,2.585,2.5877,2.5897,2.5902,2.5931,2.5972,2.5997,2.6046,2.6084,2.612,2.6134,2.6123,2.6124,2.6134,2.6133,2.6127,2.6127,2.6002,2.612,2.6119,2.6119,2.6118,2.6118,2.5791,2.5824,2.585,2.5889,2.5909,2.5935,2.5966,2.5978,2.6013,2.6052,2.6052,2.6097,2.6121,2.6168,2.6185,2.6219,2.6205,2.6221,2.6224,2.6227,2.6229,2.6124,2.6226,2.6226,2.6226,2.6225,2.6225,0,2.5891,2.5907,2.5943,2.598,2.6011,2.5999,2.6028,2.6053,2.6093,2.6117,2.6148,2.6195,2.6232,2.6247,2.6284,2.6308,2.6303,2.6317,2.6313,2.6316,2.6242,2.6227,2.632,2.632,2.632,2.632,2.6319,2.6319,2.5947,2.6001,2.6006,2.6069,2.6085,2.6128,2.6145,2.6168,2.6187,2.6239,2.627,2.628,2.63,2.6337,2.637,2.6374,2.6386,2.6401,2.6402,2.6332,2.6322,2.6313,2.6299,2.6405,2.6405,2.6474,2.6474,2.6475]},{"header":{"parameterUnit":"m.s-1","parameterCategory":1,"la1":30.2991,"la2":30.254,"lo1":-89.0895,"lo2":-89.0444,"dy":0.0017,"dx":0.0017,"nx":28,"ny":28,"refTime":"2024-07-03T09:00:00:Z","depth":0,"parameterNumber":3,"parameterNumberName":"V-component_of_WINDS"},"data":[0,0,0,0,0,0,0,0,0,0,0,0,0,0,0,0,0,0,0,0,0,0,0,0,0,0,0,0,0,0,0,0,0,0,0,0,0,0,0,0,0,0,0,0,0,0,0,0,0,0,0,0,0,0,0,0,0,0,2.4732,2.4732,0,2.4811,2.4812,2.4812,2.4793,2.4792,2.479,2.4789,2.4868,2.4871,2.4874,0,0,0,0,0,0,0,0,0,0,0,0,0,2.456,2.4563,2.4731,2.4732,2.4733,2.4811,2.4812,2.4813,2.4794,2.4792,2.479,2.4788,2.4866,2.4871,2.4875,0,0,0,0,0,0,0,0,0,0,0,0,0,2.4636,2.4565,2.4731,2.4733,2.4734,2.481,2.4812,2.4813,2.4794,2.4792,2.4789,2.4787,2.4865,2.487,2.4875,2.4954,0,0,2.4891,2.4894,0,0,0,0,0,0,0,0,2.4632,2.4643,2.4732,2.4733,2.4734,2.479,2.478,2.486,2.4795,2.4771,2.4789,2.4786,2.4843,2.485,2.487,2.4957,2.4961,2.4892,2.4895,2.4897,2.4899,0,0,0,0,0,0,0,2.4627,2.4639,2.4763,2.4733,2.4735,2.4729,2.4737,2.4795,2.4819,2.4773,2.4772,2.4782,2.4844,2.4865,2.4872,2.4962,2.4892,2.4896,2.49,2.4902,2.5115,2.5117,0,0,0,0,0,0,2.4621,2.4635,2.476,2.4765,2.4677,2.4734,2.4743,2.4774,2.4818,2.4823,2.4783,2.478,2.4857,2.4866,2.4874,2.4968,2.4897,2.4902,2.4905,2.5113,2.5116,2.5118,0,0,0,0,0,0,2.4617,2.4632,2.4757,2.47,2.4715,2.4739,2.4774,2.4777,2.4799,2.4826,2.483,2.4801,2.4856,2.4867,2.4934,2.497,2.4905,2.491,2.511,2.5113,2.5117,2.5156,0,0,0,0,0,0,2.4613,2.4631,2.4662,2.4701,2.4718,2.4816,2.4777,2.478,2.4808,2.4805,2.4844,2.4848,2.4855,2.4926,2.4939,2.4976,2.4914,2.5106,2.5111,2.5116,2.5151,2.516,2.5168,0,0,0,0,0,2.4607,2.467,2.4664,2.4679,2.4758,2.4818,2.4828,2.4835,2.4811,2.4842,2.4859,2.4847,2.4964,2.4933,2.4948,2.4987,2.5104,2.511,2.5115,2.5148,2.5159,2.5168,0,0,0,0,0,0,2.4635,2.4675,2.4669,2.4747,2.4779,2.4815,2.4854,2.4847,2.4887,2.4882,2.4888,2.4897,2.4965,2.4982,2.4947,2.5064,2.503,2.5039,2.505,2.5061,2.5069,2.5063,2.4918,0,0,0,0,0,2.465,2.4697,2.4729,2.4795,2.4812,2.483,2.4857,2.4859,2.4893,2.4906,2.4929,2.4961,2.5005,2.5034,2.5076,2.5154,2.5161,2.5188,2.5196,2.5203,2.521,2.5251,2.5263,2.5137,2.5137,2.5137,0,0,2.4683,2.471,2.4739,2.4801,2.4827,2.4874,2.4842,2.4894,2.4928,2.4914,2.4978,2.4996,2.5032,2.5104,2.5137,2.5121,2.5247,2.521,2.5215,2.5219,2.5258,2.527,2.5281,2.5141,2.514,2.5139,0,0,2.4765,2.4792,2.4848,2.4874,2.4913,2.4925,2.4938,2.4975,2.4986,2.5051,2.5041,2.5081,2.5157,2.5183,2.5206,2.5297,2.5286,2.531,2.5354,2.5393,2.5403,2.5412,2.5443,2.5454,2.5317,2.5317,2.5317,0,2.48,2.4872,2.4878,2.4931,2.4957,2.4947,2.5003,2.5028,2.5079,2.5097,2.5078,2.5172,2.5196,2.5273,2.5295,2.5314,2.5329,2.5306,2.5402,2.541,2.5419,2.5448,2.546,2.532,2.532,2.5319,2.5319,0,2.4912,2.4962,2.5003,2.5052,2.5083,2.5138,2.5151,2.5181,2.518,2.5193,2.5258,2.5286,2.5333,2.5352,2.5351,2.5428,2.5417,2.54,2.5366,2.5433,2.5461,2.5473,2.5324,2.5323,2.5322,2.5321,0,0,2.5016,2.5067,2.5082,2.5103,2.5145,2.5183,2.5235,2.5282,2.5307,2.5342,2.5385,2.5449,2.5433,2.5459,2.5461,2.5496,2.5564,2.5475,2.5475,2.5489,2.5649,2.5661,2.5674,2.5558,2.556,2.5562,2.5646,0,2.5102,2.5196,2.5202,2.5287,2.5331,2.5321,2.5367,2.5396,2.5409,2.5448,2.5462,2.5507,2.5483,2.5499,2.5533,2.5549,2.5596,2.5543,2.5597,2.5599,2.5588,2.5689,2.5703,2.5781,2.5657,2.5659,2.566,0,2.5215,2.5253,2.5342,2.5375,2.5394,2.5435,2.5477,2.5515,2.5548,2.5554,2.5583,2.558,2.5632,2.5597,2.5668,2.5632,2.5654,2.5665,2.5668,2.5673,2.5633,2.5696,2.5806,2.5818,2.5677,2.5676,2.5675,0,2.528,2.5353,2.5416,2.5435,2.5476,2.5504,2.5523,2.5553,2.558,2.5616,2.5633,2.5675,2.5697,2.5729,2.5736,2.571,2.5807,2.5773,2.5813,2.5813,2.5834,2.5833,2.5949,2.5849,2.5849,2.5849,2.5849,0,2.5375,2.5429,2.5446,2.5484,2.5544,2.555,2.5609,2.5625,2.5652,2.5692,2.5685,2.5723,2.5731,2.577,2.5776,2.5833,2.5844,2.585,2.585,2.585,2.5849,2.5865,2.5859,2.5852,2.5851,2.5851,2.585,0,2.5458,2.5472,2.5539,2.5572,2.5581,2.5624,2.5651,2.5687,2.5699,2.575,2.5762,2.578,2.5825,2.5836,2.5889,2.5893,2.5961,2.5957,2.595,2.595,2.5989,2.5985,2.6119,2.6136,2.6026,2.6027,2.6028,0,2.5518,2.556,2.5597,2.5623,2.5643,2.5686,2.5713,2.572,2.5748,2.5787,2.5818,2.5862,2.5898,2.597,2.5988,2.6028,2.6024,2.6068,2.6031,2.6028,2.6024,2.6021,2.6025,2.6076,2.6077,2.6078,2.6079,0,2.5622,2.5626,2.5665,2.5707,2.574,2.5773,2.5804,2.5826,2.5837,2.5869,2.5915,2.5943,2.5997,2.6041,2.6081,2.6098,2.609,2.609,2.6102,2.6101,2.6096,2.6098,2.5969,2.6087,2.6086,2.6086,2.6085,2.6085,2.5694,2.573,2.5762,2.5806,2.583,2.5859,2.5894,2.591,2.5949,2.5994,2.5995,2.6045,2.6075,2.6128,2.6147,2.6186,2.6172,2.6189,2.6193,2.6197,2.62,2.609,2.6193,2.6193,2.6193,2.6192,2.6192,0,2.5797,2.5816,2.5857,2.5901,2.5935,2.5924,2.5958,2.5987,2.6031,2.606,2.6095,2.6147,2.6189,2.6209,2.625,2.6276,2.6274,2.6287,2.6285,2.6289,2.621,2.6196,2.6289,2.6288,2.6288,2.6288,2.6288,2.6288,2.5854,2.5914,2.5922,2.5993,2.6011,2.6061,2.6081,2.6107,2.613,2.6188,2.6223,2.6236,2.6261,2.6303,2.634,2.6345,2.636,2.6375,2.6378,2.6304,2.6294,2.6285,2.6272,2.6378,2.6378,2.6453,2.6453,2.6454]}]]